![]() |
EMODnet Physics ERDDAP
Easier access to scientific data |
log in|
Brought to you by EMODnet Physics |
| Dataset Title: | NDBC - Collection of dew point temperature (DEWT) TimeSeries - IN SITU MultiPointTimeSeriesObservation
|
| Institution: | NDBC (Dataset ID: TS_DEWT_NDBC) |
| Information: | Summary
| License
| FGDC
| ISO 19115
| Metadata
| Background
| Subset
| Data Access Form
| Make a graph
|
| Name | Last modified | Size | Description | |
|---|---|---|---|---|
| Parent Directory | - | - | ||
| 41038_TS_DEWT_012006.nc | 06-Oct-2024 06:35 | 429815 | ||
| 41038_TS_DEWT_012007.nc | 06-Oct-2024 06:48 | 587957 | ||
| 41038_TS_DEWT_012008.nc | 06-Oct-2024 07:13 | 587753 | ||
| 41038_TS_DEWT_012009.nc | 06-Oct-2024 07:34 | 440072 | ||
| 41038_TS_DEWT_012010.nc | 06-Oct-2024 07:59 | 439776 | ||
| 41038_TS_DEWT_012011.nc | 06-Oct-2024 08:17 | 440193 | ||
| 41038_TS_DEWT_012012.nc | 06-Oct-2024 08:47 | 436129 | ||
| 41038_TS_DEWT_012013.nc | 06-Oct-2024 09:10 | 440291 | ||
| 41038_TS_DEWT_012014.nc | 06-Oct-2024 09:34 | 438767 | ||
| 41038_TS_DEWT_012015.nc | 06-Oct-2024 09:49 | 439613 | ||
| 41038_TS_DEWT_012016.nc | 06-Oct-2024 10:06 | 438788 | ||
| 41038_TS_DEWT_012017.nc | 06-Oct-2024 10:25 | 437600 | ||
| 41038_TS_DEWT_012018.nc | 06-Oct-2024 10:55 | 587924 | ||
| 41038_TS_DEWT_012019.nc | 06-Oct-2024 11:37 | 588099 | ||
| 41038_TS_DEWT_012020.nc | 06-Oct-2024 12:12 | 587958 | ||
| 41038_TS_DEWT_012021.nc | 06-Oct-2024 12:53 | 588186 | ||
| 41038_TS_DEWT_012022.nc | 06-Oct-2024 13:33 | 588178 | ||
| 41038_TS_DEWT_012023.nc | 06-Oct-2024 14:00 | 426592 | ||
| 41038_TS_DEWT_012025.nc | 07-Feb-2025 11:51 | 426105 | ||
| 41038_TS_DEWT_012026.nc | 02-Feb-2026 20:14 | 429477 | ||
| 41038_TS_DEWT_022006.nc | 06-Oct-2024 06:37 | 429444 | ||
| 41038_TS_DEWT_022007.nc | 06-Oct-2024 06:50 | 439601 | ||
| 41038_TS_DEWT_022008.nc | 06-Oct-2024 07:14 | 440043 | ||
| 41038_TS_DEWT_022009.nc | 06-Oct-2024 07:37 | 439740 | ||
| 41038_TS_DEWT_022010.nc | 06-Oct-2024 08:00 | 439611 | ||
| 41038_TS_DEWT_022011.nc | 06-Oct-2024 08:20 | 439952 | ||
| 41038_TS_DEWT_022012.nc | 06-Oct-2024 08:50 | 439878 | ||
| 41038_TS_DEWT_022013.nc | 06-Oct-2024 09:13 | 439838 | ||
| 41038_TS_DEWT_022014.nc | 06-Oct-2024 09:36 | 439866 | ||
| 41038_TS_DEWT_022015.nc | 06-Oct-2024 09:50 | 437515 | ||
| 41038_TS_DEWT_022016.nc | 06-Oct-2024 10:09 | 439019 | ||
| 41038_TS_DEWT_022017.nc | 06-Oct-2024 10:26 | 440117 | ||
| 41038_TS_DEWT_022018.nc | 06-Oct-2024 10:57 | 440095 | ||
| 41038_TS_DEWT_022019.nc | 06-Oct-2024 11:41 | 440142 | ||
| 41038_TS_DEWT_022020.nc | 06-Oct-2024 12:15 | 440138 | ||
| 41038_TS_DEWT_022021.nc | 06-Oct-2024 12:56 | 439908 | ||
| 41038_TS_DEWT_022022.nc | 06-Oct-2024 13:35 | 588508 | ||
| 41038_TS_DEWT_022023.nc | 06-Oct-2024 14:02 | 429677 | ||
| 41038_TS_DEWT_022025.nc | 01-Mar-2025 09:02 | 429498 | ||
| 41038_TS_DEWT_022026.nc | 01-Mar-2026 11:50 | 429830 | ||
| 41038_TS_DEWT_032006.nc | 06-Oct-2024 06:38 | 429565 | ||
| 41038_TS_DEWT_032007.nc | 06-Oct-2024 06:52 | 588126 | ||
| 41038_TS_DEWT_032008.nc | 06-Oct-2024 07:16 | 587897 | ||
| 41038_TS_DEWT_032009.nc | 06-Oct-2024 07:39 | 587835 | ||
| 41038_TS_DEWT_032010.nc | 06-Oct-2024 08:01 | 440120 | ||
| 41038_TS_DEWT_032011.nc | 06-Oct-2024 08:22 | 588128 | ||
| 41038_TS_DEWT_032012.nc | 06-Oct-2024 08:53 | 432970 | ||
| 41038_TS_DEWT_032013.nc | 06-Oct-2024 09:15 | 588015 | ||
| 41038_TS_DEWT_032014.nc | 06-Oct-2024 09:36 | 587943 | ||
| 41038_TS_DEWT_032015.nc | 06-Oct-2024 09:51 | 437662 | ||
| 41038_TS_DEWT_032016.nc | 06-Oct-2024 10:11 | 440044 | ||
| 41038_TS_DEWT_032017.nc | 06-Oct-2024 10:29 | 588136 | ||
| 41038_TS_DEWT_032018.nc | 06-Oct-2024 10:59 | 588120 | ||
| 41038_TS_DEWT_032019.nc | 06-Oct-2024 11:44 | 588162 | ||
| 41038_TS_DEWT_032020.nc | 06-Oct-2024 12:18 | 588175 | ||
| 41038_TS_DEWT_032021.nc | 06-Oct-2024 12:59 | 589675 | ||
| 41038_TS_DEWT_032022.nc | 06-Oct-2024 13:37 | 429444 | ||
| 41038_TS_DEWT_032023.nc | 06-Oct-2024 14:04 | 429416 | ||
| 41038_TS_DEWT_032025.nc | 02-Apr-2025 07:12 | 429456 | ||
| 41038_TS_DEWT_032026.nc | 23-Mar-2026 12:36 | 429442 | ||
| 41038_TS_DEWT_042007.nc | 06-Oct-2024 06:55 | 440000 | ||
| 41038_TS_DEWT_042008.nc | 06-Oct-2024 07:17 | 439734 | ||
| 41038_TS_DEWT_042009.nc | 06-Oct-2024 07:41 | 439469 | ||
| 41038_TS_DEWT_042010.nc | 06-Oct-2024 08:03 | 439733 | ||
| 41038_TS_DEWT_042011.nc | 06-Oct-2024 08:24 | 440115 | ||
| 41038_TS_DEWT_042012.nc | 06-Oct-2024 08:56 | 439931 | ||
| 41038_TS_DEWT_042013.nc | 06-Oct-2024 09:17 | 439354 | ||
| 41038_TS_DEWT_042014.nc | 06-Oct-2024 09:38 | 439563 | ||
| 41038_TS_DEWT_042015.nc | 06-Oct-2024 09:52 | 439763 | ||
| 41038_TS_DEWT_042016.nc | 06-Oct-2024 10:13 | 439721 | ||
| 41038_TS_DEWT_042017.nc | 06-Oct-2024 10:32 | 440133 | ||
| 41038_TS_DEWT_042018.nc | 06-Oct-2024 11:02 | 420213 | ||
| 41038_TS_DEWT_042019.nc | 06-Oct-2024 11:46 | 440149 | ||
| 41038_TS_DEWT_042020.nc | 06-Oct-2024 12:21 | 437867 | ||
| 41038_TS_DEWT_042021.nc | 06-Oct-2024 13:03 | 440051 | ||
| 41038_TS_DEWT_042022.nc | 06-Oct-2024 13:38 | 429742 | ||
| 41038_TS_DEWT_042023.nc | 06-Oct-2024 14:06 | 429690 | ||
| 41038_TS_DEWT_042025.nc | 01-May-2025 04:41 | 429838 | ||
| 41038_TS_DEWT_052007.nc | 06-Oct-2024 06:58 | 429833 | ||
| 41038_TS_DEWT_052008.nc | 06-Oct-2024 07:20 | 588118 | ||
| 41038_TS_DEWT_052009.nc | 06-Oct-2024 07:42 | 588086 | ||
| 41038_TS_DEWT_052010.nc | 06-Oct-2024 08:04 | 439459 | ||
| 41038_TS_DEWT_052011.nc | 06-Oct-2024 08:25 | 588369 | ||
| 41038_TS_DEWT_052012.nc | 06-Oct-2024 08:59 | 588107 | ||
| 41038_TS_DEWT_052013.nc | 06-Oct-2024 09:19 | 588039 | ||
| 41038_TS_DEWT_052014.nc | 06-Oct-2024 09:39 | 437281 | ||
| 41038_TS_DEWT_052015.nc | 06-Oct-2024 09:53 | 588002 | ||
| 41038_TS_DEWT_052016.nc | 06-Oct-2024 10:14 | 439925 | ||
| 41038_TS_DEWT_052017.nc | 06-Oct-2024 10:34 | 587675 | ||
| 41038_TS_DEWT_052018.nc | 06-Oct-2024 11:05 | 588180 | ||
| 41038_TS_DEWT_052019.nc | 06-Oct-2024 11:49 | 588205 | ||
| 41038_TS_DEWT_052020.nc | 06-Oct-2024 12:25 | 588205 | ||
| 41038_TS_DEWT_052021.nc | 06-Oct-2024 13:06 | 588016 | ||
| 41038_TS_DEWT_052022.nc | 06-Oct-2024 13:40 | 437877 | ||
| 41038_TS_DEWT_052023.nc | 06-Oct-2024 14:08 | 439959 | ||
| 41038_TS_DEWT_052025.nc | 01-Jun-2025 04:54 | 431655 | ||
| 41038_TS_DEWT_062007.nc | 06-Oct-2024 07:00 | 440321 | ||
| 41038_TS_DEWT_062008.nc | 06-Oct-2024 07:23 | 439846 | ||
| 41038_TS_DEWT_062009.nc | 06-Oct-2024 07:43 | 439103 | ||
| 41038_TS_DEWT_062010.nc | 06-Oct-2024 08:05 | 587060 | ||
| 41038_TS_DEWT_062011.nc | 06-Oct-2024 08:28 | 426830 | ||
| 41038_TS_DEWT_062012.nc | 06-Oct-2024 09:01 | 438862 | ||
| 41038_TS_DEWT_062013.nc | 06-Oct-2024 09:20 | 436480 | ||
| 41038_TS_DEWT_062014.nc | 06-Oct-2024 09:40 | 425822 | ||
| 41038_TS_DEWT_062015.nc | 06-Oct-2024 09:54 | 437997 | ||
| 41038_TS_DEWT_062016.nc | 06-Oct-2024 10:15 | 436530 | ||
| 41038_TS_DEWT_062017.nc | 06-Oct-2024 10:37 | 431409 | ||
| 41038_TS_DEWT_062018.nc | 06-Oct-2024 11:09 | 438934 | ||
| 41038_TS_DEWT_062019.nc | 06-Oct-2024 11:52 | 419763 | ||
| 41038_TS_DEWT_062020.nc | 06-Oct-2024 12:29 | 437320 | ||
| 41038_TS_DEWT_062021.nc | 06-Oct-2024 13:09 | 439891 | ||
| 41038_TS_DEWT_062022.nc | 06-Oct-2024 13:42 | 438872 | ||
| 41038_TS_DEWT_062023.nc | 06-Oct-2024 14:09 | 587218 | ||
| 41038_TS_DEWT_062025.nc | 01-Jul-2025 05:00 | 426788 | ||
| 41038_TS_DEWT_072005.nc | 06-Oct-2024 06:25 | 423757 | ||
| 41038_TS_DEWT_072006.nc | 06-Oct-2024 06:39 | 436853 | ||
| 41038_TS_DEWT_072007.nc | 06-Oct-2024 07:02 | 439922 | ||
| 41038_TS_DEWT_072008.nc | 06-Oct-2024 07:25 | 439974 | ||
| 41038_TS_DEWT_072009.nc | 06-Oct-2024 07:46 | 439939 | ||
| 41038_TS_DEWT_072010.nc | 06-Oct-2024 08:07 | 440179 | ||
| 41038_TS_DEWT_072011.nc | 06-Oct-2024 08:32 | 440001 | ||
| 41038_TS_DEWT_072012.nc | 06-Oct-2024 09:02 | 438350 | ||
| 41038_TS_DEWT_072013.nc | 06-Oct-2024 09:22 | 437588 | ||
| 41038_TS_DEWT_072014.nc | 06-Oct-2024 09:41 | 440073 | ||
| 41038_TS_DEWT_072015.nc | 06-Oct-2024 09:56 | 587128 | ||
| 41038_TS_DEWT_072016.nc | 06-Oct-2024 10:16 | 587126 | ||
| 41038_TS_DEWT_072017.nc | 06-Oct-2024 10:39 | 587312 | ||
| 41038_TS_DEWT_072018.nc | 06-Oct-2024 11:14 | 439195 | ||
| 41038_TS_DEWT_072019.nc | 06-Oct-2024 11:56 | 439868 | ||
| 41038_TS_DEWT_072020.nc | 06-Oct-2024 12:32 | 439019 | ||
| 41038_TS_DEWT_072021.nc | 06-Oct-2024 13:12 | 439601 | ||
| 41038_TS_DEWT_072022.nc | 06-Oct-2024 13:45 | 439934 | ||
| 41038_TS_DEWT_072023.nc | 06-Oct-2024 14:11 | 439988 | ||
| 41038_TS_DEWT_072025.nc | 01-Aug-2025 05:08 | 440219 | ||
| 41038_TS_DEWT_082005.nc | 06-Oct-2024 06:27 | 439774 | ||
| 41038_TS_DEWT_082006.nc | 06-Oct-2024 06:41 | 440259 | ||
| 41038_TS_DEWT_082007.nc | 06-Oct-2024 07:04 | 434419 | ||
| 41038_TS_DEWT_082009.nc | 06-Oct-2024 07:49 | 440312 | ||
| 41038_TS_DEWT_082010.nc | 06-Oct-2024 08:09 | 587136 | ||
| 41038_TS_DEWT_082011.nc | 06-Oct-2024 08:35 | 424450 | ||
| 41038_TS_DEWT_082012.nc | 06-Oct-2024 09:04 | 586923 | ||
| 41038_TS_DEWT_082013.nc | 06-Oct-2024 09:24 | 587269 | ||
| 41038_TS_DEWT_082014.nc | 06-Oct-2024 09:42 | 439670 | ||
| 41038_TS_DEWT_082015.nc | 06-Oct-2024 09:57 | 439614 | ||
| 41038_TS_DEWT_082016.nc | 06-Oct-2024 10:17 | 440403 | ||
| 41038_TS_DEWT_082017.nc | 06-Oct-2024 10:43 | 439634 | ||
| 41038_TS_DEWT_082018.nc | 06-Oct-2024 11:18 | 438434 | ||
| 41038_TS_DEWT_082019.nc | 06-Oct-2024 11:59 | 586976 | ||
| 41038_TS_DEWT_082020.nc | 06-Oct-2024 12:35 | 587085 | ||
| 41038_TS_DEWT_082021.nc | 06-Oct-2024 13:16 | 587268 | ||
| 41038_TS_DEWT_082022.nc | 06-Oct-2024 13:48 | 587269 | ||
| 41038_TS_DEWT_082023.nc | 06-Oct-2024 14:13 | 438420 | ||
| 41038_TS_DEWT_082025.nc | 01-Sep-2025 04:59 | 424600 | ||
| 41038_TS_DEWT_092005.nc | 06-Oct-2024 06:29 | 435759 | ||
| 41038_TS_DEWT_092006.nc | 06-Oct-2024 06:42 | 440046 | ||
| 41038_TS_DEWT_092007.nc | 06-Oct-2024 07:06 | 437632 | ||
| 41038_TS_DEWT_092008.nc | 06-Oct-2024 07:27 | 438661 | ||
| 41038_TS_DEWT_092009.nc | 06-Oct-2024 07:52 | 439913 | ||
| 41038_TS_DEWT_092010.nc | 06-Oct-2024 08:10 | 440185 | ||
| 41038_TS_DEWT_092011.nc | 06-Oct-2024 08:38 | 439852 | ||
| 41038_TS_DEWT_092012.nc | 06-Oct-2024 09:05 | 440193 | ||
| 41038_TS_DEWT_092013.nc | 06-Oct-2024 09:27 | 439944 | ||
| 41038_TS_DEWT_092014.nc | 06-Oct-2024 09:44 | 440117 | ||
| 41038_TS_DEWT_092015.nc | 06-Oct-2024 09:58 | 587086 | ||
| 41038_TS_DEWT_092016.nc | 06-Oct-2024 10:18 | 437801 | ||
| 41038_TS_DEWT_092017.nc | 06-Oct-2024 10:46 | 439110 | ||
| 41038_TS_DEWT_092018.nc | 06-Oct-2024 11:22 | 587141 | ||
| 41038_TS_DEWT_092019.nc | 06-Oct-2024 12:02 | 587255 | ||
| 41038_TS_DEWT_092020.nc | 06-Oct-2024 12:39 | 440038 | ||
| 41038_TS_DEWT_092022.nc | 06-Oct-2024 13:50 | 438959 | ||
| 41038_TS_DEWT_092023.nc | 06-Oct-2024 14:15 | 439749 | ||
| 41038_TS_DEWT_092025.nc | 10-Sep-2025 04:28 | 439877 | ||
| 41038_TS_DEWT_102005.nc | 06-Oct-2024 06:30 | 439514 | ||
| 41038_TS_DEWT_102006.nc | 06-Oct-2024 06:43 | 439652 | ||
| 41038_TS_DEWT_102007.nc | 06-Oct-2024 07:07 | 439471 | ||
| 41038_TS_DEWT_102008.nc | 06-Oct-2024 07:28 | 440111 | ||
| 41038_TS_DEWT_102009.nc | 06-Oct-2024 07:54 | 438667 | ||
| 41038_TS_DEWT_102010.nc | 06-Oct-2024 08:12 | 607532 | ||
| 41038_TS_DEWT_102011.nc | 06-Oct-2024 08:41 | 438190 | ||
| 41038_TS_DEWT_102012.nc | 06-Oct-2024 09:06 | 440167 | ||
| 41038_TS_DEWT_102013.nc | 06-Oct-2024 09:29 | 587130 | ||
| 41038_TS_DEWT_102014.nc | 06-Oct-2024 09:45 | 439851 | ||
| 41038_TS_DEWT_102015.nc | 06-Oct-2024 10:00 | 437797 | ||
| 41038_TS_DEWT_102016.nc | 06-Oct-2024 10:20 | 438851 | ||
| 41038_TS_DEWT_102017.nc | 06-Oct-2024 10:49 | 586955 | ||
| 41038_TS_DEWT_102018.nc | 06-Oct-2024 11:26 | 439535 | ||
| 41038_TS_DEWT_102019.nc | 06-Oct-2024 12:05 | 592764 | ||
| 41038_TS_DEWT_102020.nc | 06-Oct-2024 12:41 | 438524 | ||
| 41038_TS_DEWT_102021.nc | 06-Oct-2024 13:23 | 440213 | ||
| 41038_TS_DEWT_102022.nc | 06-Oct-2024 13:51 | 587052 | ||
| 41038_TS_DEWT_102023.nc | 06-Oct-2024 14:17 | 587254 | ||
| 41038_TS_DEWT_102024.nc | 12-Jan-2025 20:55 | 587244 | ||
| 41038_TS_DEWT_112005.nc | 06-Oct-2024 06:32 | 587210 | ||
| 41038_TS_DEWT_112006.nc | 06-Oct-2024 06:45 | 418876 | ||
| 41038_TS_DEWT_112007.nc | 06-Oct-2024 07:09 | 438503 | ||
| 41038_TS_DEWT_112008.nc | 06-Oct-2024 07:30 | 438645 | ||
| 41038_TS_DEWT_112009.nc | 06-Oct-2024 07:55 | 439311 | ||
| 41038_TS_DEWT_112010.nc | 06-Oct-2024 08:13 | 439525 | ||
| 41038_TS_DEWT_112011.nc | 06-Oct-2024 08:43 | 438822 | ||
| 41038_TS_DEWT_112013.nc | 06-Oct-2024 09:32 | 425726 | ||
| 41038_TS_DEWT_112014.nc | 06-Oct-2024 09:46 | 440268 | ||
| 41038_TS_DEWT_112015.nc | 06-Oct-2024 10:01 | 440044 | ||
| 41038_TS_DEWT_112016.nc | 06-Oct-2024 10:21 | 440111 | ||
| 41038_TS_DEWT_112017.nc | 06-Oct-2024 10:51 | 587117 | ||
| 41038_TS_DEWT_112018.nc | 06-Oct-2024 11:30 | 435004 | ||
| 41038_TS_DEWT_112019.nc | 06-Oct-2024 12:07 | 440052 | ||
| 41038_TS_DEWT_112020.nc | 06-Oct-2024 12:45 | 439340 | ||
| 41038_TS_DEWT_112021.nc | 06-Oct-2024 13:27 | 437680 | ||
| 41038_TS_DEWT_112022.nc | 06-Oct-2024 13:54 | 440002 | ||
| 41038_TS_DEWT_122005.nc | 06-Oct-2024 06:33 | 587130 | ||
| 41038_TS_DEWT_122006.nc | 06-Oct-2024 06:47 | 439968 | ||
| 41038_TS_DEWT_122007.nc | 06-Oct-2024 07:11 | 433355 | ||
| 41038_TS_DEWT_122008.nc | 06-Oct-2024 07:32 | 434254 | ||
| 41038_TS_DEWT_122009.nc | 06-Oct-2024 07:57 | 587239 | ||
| 41038_TS_DEWT_122010.nc | 06-Oct-2024 08:15 | 587164 | ||
| 41038_TS_DEWT_122011.nc | 06-Oct-2024 08:45 | 439949 | ||
| 41038_TS_DEWT_122012.nc | 06-Oct-2024 09:08 | 439933 | ||
| 41038_TS_DEWT_122013.nc | 06-Oct-2024 09:33 | 440061 | ||
| 41038_TS_DEWT_122014.nc | 06-Oct-2024 09:47 | 439451 | ||
| 41038_TS_DEWT_122015.nc | 06-Oct-2024 10:04 | 440025 | ||
| 41038_TS_DEWT_122016.nc | 06-Oct-2024 10:23 | 439921 | ||
| 41038_TS_DEWT_122017.nc | 06-Oct-2024 10:53 | 439988 | ||
| 41038_TS_DEWT_122018.nc | 06-Oct-2024 11:33 | 438064 | ||
| 41038_TS_DEWT_122019.nc | 06-Oct-2024 12:10 | 440138 | ||
| 41038_TS_DEWT_122020.nc | 06-Oct-2024 12:50 | 586958 | ||
| 41038_TS_DEWT_122021.nc | 06-Oct-2024 13:30 | 587082 | ||
| 41038_TS_DEWT_122022.nc | 06-Oct-2024 13:57 | 587161 | ||
| 41038_TS_DEWT_122023.nc | 06-Oct-2024 14:22 | 440298 | ||
| 41038_TS_DEWT_122024.nc | 22-Jan-2025 16:44 | 587159 | ||